Flag for U.S.A. Weather past 2 weeks in Rochester, New York, U.S.A.

Now
71 °F

Fog.


Feels Like: 67 °F
Forecast: 67 / 76 °F
Wind: 5 mph from Southwest

Location: Greater Rochester International Airport

Current Time: Jul 23, 2014 at 4:45:54 AM

Latest Report: Jul 23, 2014 at 1:54 AM


Visibility: 6 mi

Pressure: 29.92 "Hg

Humidity: 93%

Dew point: 69 °F

Location of RochesterLocation

Historic Weather in Rochester — Graph

°F

Rochester temperature yesterday

Maximum temperature yesterday: 84 °F (at 12:54 PM)
Minimum temperature yesterday: 63 °F (at 5:54 AM)
Average temperature yesterday: 72 °F

Past Weeks' High & Low Weather Summary

 TemperatureHumidityPressure
High84 °F (Jul 22, 12:54 PM)100% (Jul 15, 7:54 AM)30.27 "Hg (Jul 15, 7:54 AM)
Low53 °F (Jul 18, 4:54 AM)37% (Jul 18, 1:54 PM)29.50 "Hg (Jul 8, 3:54 PM)
Average69 °F71%30.01 "Hg
* Reported Jul 8 1:54 AM — Jul 23 1:54 AM, Rochester, Weather by CustomWeather, © 2014

Note: Actual official high and low records may vary slightly from our data, if they occured in-between our weather recording intervals... More about our weather records

Advertising

Rochester weather history for previous 24 hours

 ConditionsComfort  
Time TempWeatherWind HumidityBarometerVisibility
1:54 AM
Jul 23
71 °FFog.5 mph93%29.92 "Hg6 mi
12:54 AM72 °FClear.3 mph91%29.93 "Hg8 mi
11:54 PM
Jul 22
73 °FClear.No wind84%29.95 "Hg10 mi
10:54 PM76 °FClear.3 mph77%29.96 "Hg10 mi
9:54 PM77 °FClear.5 mph74%29.94 "Hg10 mi
8:54 PM80 °FSunny.3 mph64%29.96 "Hg10 mi
7:54 PM84 °FPassing clouds.6 mph55%29.99 "Hg10 mi
12:54 PM84 °FPassing clouds.5 mph55%30.07 "Hg10 mi
11:54 AM82 °FPassing clouds.5 mph55%30.09 "Hg10 mi
10:54 AM81 °FPassing clouds.No wind54%30.12 "Hg10 mi
9:54 AM77 °FSunny.No wind66%30.13 "Hg10 mi
8:54 AM73 °FSunny.5 mph79%30.14 "Hg10 mi
7:54 AM68 °FSunny.5 mph93%30.14 "Hg8 mi
6:54 AM64 °FFog.5 mph97%30.14 "Hg4 mi
5:54 AM63 °FFog.3 mph97%30.14 "Hg3 mi
5:01 AM64 °FFog.No wind94%30.12 "Hg0 mi
4:04 AM64 °FFog.No wind100%30.11 "Hg2 mi
Weather by CustomWeather, © 2014

See weather overviewHow to use our weather pages